TimeEDT,TemperatureF,Dew PointF,Humidity,Sea Level PressureIn,VisibilityMPH,Wind Direction,Wind SpeedMPH,Gust SpeedMPH,PrecipitationIn,Events,Conditions,WindDirDegrees,DateUTC
12:53 AM,42.1,39.9,92,30.00,10.0,Calm,Calm,-,N/A,,Overcast,0,2013-04-05 04:53:00
1:53 AM,42.1,41.0,96,29.99,10.0,East,3.5,-,N/A,,Overcast,80,2013-04-05 05:53:00
2:09 AM,42.8,41.0,93,30.00,10.0,Calm,Calm,-,N/A,,Overcast,0,2013-04-05 06:09:00
2:53 AM,42.1,41.0,96,29.98,10.0,Calm,Calm,-,0.00,,Overcast,0,2013-04-05 06:53:00
3:53 AM,43.0,41.0,93,29.97,10.0,Calm,Calm,-,N/A,,Overcast,0,2013-04-05 07:53:00
4:22 AM,42.8,41.0,93,29.98,10.0,Calm,Calm,-,N/A,,Overcast,0,2013-04-05 08:22:00
4:36 AM,42.8,41.0,93,29.99,10.0,Calm,Calm,-,N/A,,Overcast,0,2013-04-05 08:36:00
4:53 AM,43.0,42.1,97,29.98,10.0,Calm,Calm,-,N/A,,Overcast,0,2013-04-05 08:53:00
5:01 AM,42.8,41.0,93,29.98,10.0,Calm,Calm,-,N/A,,Overcast,0,2013-04-05 09:01:00
5:33 AM,42.8,42.8,100,29.99,10.0,Calm,Calm,-,N/A,,Overcast,0,2013-04-05 09:33:00
5:46 AM,42.8,42.8,100,30.00,10.0,Calm,Calm,-,N/A,,Overcast,0,2013-04-05 09:46:00
5:53 AM,43.0,42.1,97,29.99,10.0,Calm,Calm,-,N/A,,Overcast,0,2013-04-05 09:53:00
6:53 AM,43.0,43.0,100,30.00,6.0,Calm,Calm,-,N/A,,Overcast,0,2013-04-05 10:53:00
7:53 AM,44.1,44.1,100,30.01,4.0,Calm,Calm,-,N/A,,Overcast,0,2013-04-05 11:53:00
8:15 AM,44.6,42.8,93,30.01,7.0,Calm,Calm,-,N/A,,Overcast,0,2013-04-05 12:15:00
8:45 AM,44.6,42.8,93,30.03,10.0,Variable,5.8,-,N/A,,Overcast,0,2013-04-05 12:45:00
8:53 AM,45.0,42.1,90,30.02,10.0,NNW,4.6,-,N/A,,Overcast,340,2013-04-05 12:53:00
9:53 AM,46.0,42.1,86,30.03,10.0,NNW,3.5,-,N/A,,Overcast,330,2013-04-05 13:53:00
10:35 AM,50.0,44.6,82,30.04,10.0,North,6.9,-,N/A,,Scattered Clouds,350,2013-04-05 14:35:00
10:53 AM,51.1,44.1,77,30.03,10.0,North,9.2,-,N/A,,Scattered Clouds,360,2013-04-05 14:53:00
11:30 AM,53.6,44.6,72,30.05,10.0,North,6.9,-,N/A,,Mostly Cloudy,350,2013-04-05 15:30:00
11:53 AM,53.1,44.1,71,30.04,10.0,Variable,6.9,-,N/A,,Mostly Cloudy,0,2013-04-05 15:53:00
12:50 PM,57.2,44.6,63,30.05,10.0,NNW,9.2,-,N/A,,Overcast,340,2013-04-05 16:50:00
12:53 PM,57.0,43.0,59,30.04,10.0,NNW,6.9,-,N/A,,Mostly Cloudy,340,2013-04-05 16:53:00
1:53 PM,59.0,43.0,55,30.02,10.0,North,11.5,16.1,N/A,,Partly Cloudy,360,2013-04-05 17:53:00
2:53 PM,62.1,41.0,46,30.01,10.0,Variable,4.6,-,N/A,,Clear,0,2013-04-05 18:53:00
3:53 PM,62.1,34.0,35,30.00,10.0,NNW,11.5,16.1,N/A,,Clear,340,2013-04-05 19:53:00
4:53 PM,64.0,33.1,31,29.99,10.0,North,11.5,20.7,N/A,,Clear,360,2013-04-05 20:53:00
5:53 PM,64.0,35.1,34,29.99,10.0,NNW,8.1,17.3,N/A,,Clear,340,2013-04-05 21:53:00
6:53 PM,63.0,37.0,38,30.01,10.0,North,8.1,-,N/A,,Clear,360,2013-04-05 22:53:00
7:53 PM,59.0,37.9,46,30.02,10.0,Calm,Calm,-,N/A,,Clear,0,2013-04-05 23:53:00
8:53 PM,48.0,42.1,80,30.04,10.0,Calm,Calm,-,N/A,,Clear,0,2013-04-06 00:53:00
9:53 PM,46.9,41.0,80,30.06,10.0,Calm,Calm,-,N/A,,Clear,0,2013-04-06 01:53:00
10:53 PM,46.0,41.0,83,30.08,10.0,Calm,Calm,-,N/A,,Clear,0,2013-04-06 02:53:00
11:53 PM,43.0,41.0,93,30.09,8.0,Calm,Calm,-,N/A,,Clear,0,2013-04-06 03:53:00